Back to catalog

ARIANE 42P+ DEB

LostHEO
NORAD 34192·DEBRIS·🇫🇷 France

Launched Oct 28, 1992 from Guiana Space Centre

Loading…

Next Passes (next 24 hours)

TLE

StaleSource: Space-Track

Epoch: Nov 14, 2025, 22:32 UTC

1 34192U 92072Y   25318.93949329  .00000350  00000-0  15068-2 0  9996
2 34192   8.1819 278.7928 6481313 187.9340 152.1855  3.17181315243353

Track ARIANE 42P+ DEB in real time with AllMySat

Download on the App Store